Location: Epalinges
(46.5518°N, 6.6683°E)
Time: 02:57:54
(UTC+00:00)

Helios 1B rocket - Pass Details

Date: 20 June 2021
Orbit: 573 x 583 km, 98.2° (Epoch: 04 August)

Event Time Altitude Azimuth Distance (km) Brightness Sun altitude
Rises 00:47:13 0° 22° (NNE) 2,799 7.6 -18.1°
Reaches altitude 10° 00:49:35 10° 33° (NNE) 1,894 6.2 -18.0°
Maximum altitude 00:53:15 31° 97° (E) 1,010 3.7 -17.8°
Enters shadow 00:55:13 21° 144° (SE) 1,321 3.9 -17.7°
